User: anonymous   Login
Location: Unspecified
(0.0000°N, 0.0000°E)
Time: 08:57:26
(UTC+00:00)
Language:

Diademe D-1C - Orbit

View from above orbital plane
View from above orbital plane
View from above satellite
View from above satellite

Ground track
Ground track

The orbit data is extracted from the following two-line orbital elements,

1  2674U 67011A   17204.84582059 +.00000050 +00000-0 +26755-4 0  9993
2  2674 039.9269 354.9757 0269712 314.7467 043.1643 14.54371507614704
Epoch (UTC): 23 July 2017 20:17:58
Eccentricity: 0.0269712
inclination: 39.9269°
perigee height: 520 km
apogee height: 902 km
right ascension of ascending node: 354.9757°
argument of perigee: 314.7467°
revolutions per day: 14.54371507
mean anomaly at epoch: 43.1643°
orbit number at epoch: 61470

The dashed part of the orbit path shows where the satellite is in the earth's shadow,  

DLR